Location: Lecco
(45.8566°N, 9.3977°E)
Time: 09:39:31
(UTC+02:00)

S-56A Canister/Altair - Pass Details

Date: 23 July 2019
Orbit: 633 x 2499 km, 38.9° (Epoch: 23 August)

Event Time Altitude Azimuth Distance (km) Brightness Sun altitude
Rises 06:40:14 0° 216° (SW) 4,638 11.0 6.3°
Reaches altitude 10° 06:43:15 10° 208° (SSW) 3,902 10.7 6.7°
Maximum altitude 06:52:53 38° 145° (SE) 2,874 10.7 8.3°
Drops below altitude 10° 07:05:25 10° 84° (E) 5,083 13.9 10.4°
Sets 07:09:57 0° 78° (ENE) 6,168 14.3 11.1°
